Find Starlink 33737

NORAD ID: 63456 Int'l Des: 2025-069 Owner: SPXS Country: US Constellation: starlink operational
LEOCIRCULAR

实时位置

正在加载3D地球...

关于 Starlink 33737

正在加载描述...

即将过境

Passes for default location (London). Set your location on the main map for personalized predictions.

高度历史

Loading altitude history...

两行轨道根数

1 63456U 25069Z 26107.01387246 .00013926 00000-0 48131-3 0 9994
2 63456 53.1593 324.3467 0000963 85.4565 274.6546 15.30208233 59164
Epoch: Apr 17, 2026 • Age: 19 hours

当前状态

高度 475.5 km
速度 7.63 km/s
星下点 23.15°N, 155.74°W
发射日期 Apr 4, 2025
运行时间 1 years
类型 internet

技术详情

分类 Payload
质量 575.00 kg
干质量 530.00 kg
总质量 575.00 kg
长度 0.30 m
直径 4.10 m
跨度 29.00 m
形状 Box + pan
制造商 SPXS
平台类型 Starlink V2MO
阶段状态 In Orbit
所有者/国家 SPXS/US

Most Searched